This is the latest recevied weather packets stored in our database for station/object KB2AHZ. If no packets are shown the sender has not sent any weather packets the latest 10 day(s).
| Time | Temp. | Humidity | Pressure | Rain* | Wind** | Luminosity | Snow |
|---|---|---|---|---|---|---|---|
| 1777862631 | 9.44° C | 65% | 1017.7 hPa | 0 mm | - | 0 W/m² | - |
| 1777862328 | 10° C | 62% | 1017.4 hPa | 0 mm | - | 0 W/m² | - |
| 1777862025 | 10° C | 62% | 1017.4 hPa | 0 mm | - | 0 W/m² | - |
| 1777861720 | 10° C | 62% | 1017.5 hPa | 0 mm | - | 0 W/m² | - |
| 1777861417 | 10° C | 68% | 1017.4 hPa | 0 mm | - | 0 W/m² | - |
| 1777861114 | 10° C | 64% | 1017.4 hPa | 0 mm | - | 0 W/m² | - |
| 1777860811 | 10° C | 64% | 1017.4 hPa | 0 mm | - | 0 W/m² | - |
| 1777860508 | 10.56° C | 61% | 1017.3 hPa | 0 mm | - | 0 W/m² | - |
| 1777860205 | 10.56° C | 61% | 1017.1 hPa | 0 mm | - | 0 W/m² | - |
| 1777859901 | 10.56° C | 60% | 1017.4 hPa | 0 mm | - | 0 W/m² | - |
| 1777859597 | 10.56° C | 58% | 1017 hPa | 0 mm | - | 0 W/m² | - |
| 1777859294 | 11.11° C | 58% | 1017.1 hPa | 0 mm | - | 0 W/m² | - |
| 1777858990 | 11.11° C | 57% | 1017.1 hPa | 0 mm | - | 0 W/m² | - |
| 1777858688 | 11.11° C | 58% | 1017.2 hPa | 0 mm | - | 0 W/m² | - |
| 1777858385 | 11.67° C | 55% | 1017.2 hPa | 0 mm | - | 0 W/m² | - |
| 1777858081 | 11.67° C | 53% | 1017.1 hPa | 0 mm | - | 0 W/m² | - |
| 1777857780 | 11.11° C | 52% | 1017.1 hPa | 0 mm | - | 0 W/m² | - |
| 1777857476 | 11.11° C | 55% | 1017.1 hPa | 0 mm | - | 0 W/m² | - |
| 1777857173 | 11.11° C | 57% | 1017.3 hPa | 0 mm | - | 0 W/m² | - |
| 1777856869 | 11.11° C | 56% | 1017.2 hPa | 0 mm | - | 0 W/m² | - |
| 1777856564 | 11.11° C | 55% | 1017 hPa | 0 mm | - | 0 W/m² | - |
| 1777856262 | 11.11° C | 59% | 1016.9 hPa | 0 mm | - | 0 W/m² | - |
| 1777855958 | 11.11° C | 62% | 1017.2 hPa | 0 mm | - | 0 W/m² | - |
| 1777855656 | 11.11° C | 59% | 1016.8 hPa | 0 mm | - | 0 W/m² | - |
| 1777855353 | 11.67° C | 58% | 1016.8 hPa | 0 mm | - | 0 W/m² | - |
* Rain latest hour (hover to see other rain measurements)
** Current wind speed in m/s (hover to see current wind gust speed)